STARLINK-32404, 61710

Orbit data source: Space-Track

STARLINK-32404, 61710 is a payload satellite owned by SpaceX/Seattle (US) in LEO that was launched on Wed, 30 Oct 2024 UTC via an FALCON 9 launch vehicle from the Air Force Eastern Test Range (AFETR). Payload-class satellites include a variety of spacecraft equipped with specific instruments for various scientific and technological missions. These include communications satellites like Starlink; space stations such as the ISS; scientific satellites like the Hubble; Earth observation satellites from companies like Planet Labs, Umbra, and HawkEye 360; GPS; miniature CubeSats for education and research; and military/defense satellites.

Loading next visibility...
Identifier
61710, 2024-196D
Orbit
LEO
Last TLE update
11 hours ago
Origin
Manufacturer
SpaceX/Seattle
Mission
Operational Commercial Communications
Bus & Motor
STARLINK V2M, Unknown motor
Mass
730 kg wet, ~700 kg dry
Launch date (UTC)
2024-10-30 (8 months ago)
Launch vehicle
FALCON 9
Launch site
Air Force Eastern Test Range (AFETR)
Object type
Payload
Rocket body
Debris
Shape & HBR
Box + 2 Pan, 29 m
Radar Cross Section
36.964 m², Large (>1 m²)

Expand to show TLE details & history

TLE from 11 hours ago
0 STARLINK-32404
1 61710U 24196D   25182.75040636 -.00000494  00000-0 -45660-5 0  9991
2 61710  53.1590 187.1452 0001086  78.6450 281.4673 15.30186681 38734
Epoch: 2025-07-01T18:00Z
TLE epoch observation values (Epoch: 2025-07-01T18:00:35.109Z)
Latitude
Longitude
-3.04246°
Altitude
476.007 km
Speed
7.629 km/s
True Right ascension
12h 28m 34s
True Declination
0° 00' 00"
Sunlit
Object was in daylight at epoch
Visualization orbit readout
Latitude
-15.7556°
Longitude
-17.28482°
Altitude
479.63 km
Speed
7.626 km/s
Apparent Right ascension
08h 46m 26s
Apparent Declination
-39° 26' 08"
Sunlit
Object is in daylight
Visualization observer readout
Local Sidereal Time
16:35:17
Azimuth
249.225° W
Elevation
-42.725°
Doppler factor
1
Orbital elements
Apogee altitude
476.256 km
Perigee altitude
474.767 km
Semi-major axis
6,853.648 km
Eccentricity
0.00011
Inclination
53.159°
RAAN
187.1452°
Arg. of periapsis
78.645°
True anomaly
Unknown
Mean anomaly
281.4673°
Eccentric anomaly
Unknown
Mean motion
3.82526 °/min
Orbital period
94.11 mins
BSTAR
-0.000004566
Loading maneuver chart data...
Loading SW <> Apogee altitude chart data...
Loading historical data...
Loading historical data...
Loading historical data...
Loading historical data...
Loading historical data...
Loading historical data...
Loading historical data...

STARLINK-32404 Visibility forecast

Observer location: undefined°, undefined°

Span
Click to sort rows by Start time (UTC) header in descending order
Start Az.
Max El. time (UTC)
Max El. Az.
Max El.
End time (UTC)
End Az.
4 mins2025-07-02 08:34:48.433Z346.489° N2025-07-02 08:36:48.433Z30.011° NE20.336°2025-07-02 08:38:48.433Z69.634° E
5 mins2025-07-02 10:12:48.433Z297.944° NW2025-07-02 10:14:48.433Z222.744° SW41.806°2025-07-02 10:17:48.433Z143.546° SSE
6 mins2025-07-03 03:07:48.433Z244.706° WSW2025-07-03 03:09:48.433Z282.181° WNW39.46°2025-07-03 03:13:48.433Z44.244° NE
|